sat.trackr.live / text

‹ back to catalog

GLOBAL-14

NORAD 49469 · 2021-106A

PAYLOAD ACTIVE UNKNOWN

§ Identity

Operator
Country
US
Launch date
2021-11-18
Launch site
RLLB
Launch vehicle
Mass (kg)
RCS (m²)

External: N2YO · Heavens-Above · Gunter

§ Orbital elements

Epoch: 2026-09-20T22:08:44.380896Z

Period
92.60 min
Inclination
42.0027°
Eccentricity
0.0019194
Mean motion
15.55023198 rev/d
Perigee alt
389.1 km
Apogee alt
415.1 km
Semi-major
6,780.2 km
B*
3.1691e-4
RAAN
80.2505°
Arg perigee
329.9906°
Mean anomaly
29.9838°
Rev number
27,301

§ Raw data

GLOBAL-141 49469U 21106A   26263.92273589  .00021750  00000+0  31691-3 0  99932 49469  42.0027  80.2505 0019194 329.9906  29.9838 15.55023198273012

JSON: /api/v1/satellites/49469 · /tle

For live sub-satellite position, see the globe view (requires WebGL).

§ Visibility from observer

Set your observer location to see the next 7 days of passes ≥ 10°. The values pass through the URL so the page stays shareable.

No JS? Fill the form by hand. The geolocation button needs JavaScript.

§ Radio — SatNOGS DB

ModeDescriptionDownlinkUplink
FM Telemetry 400.875 MHz
FM UHF Unknown (inactive) 401.155 MHz

2 transmitters · refreshed weekly from db.satnogs.org